Time,TemperatureF,DewpointF,PressureIn,WindDirection,WindDirectionDegrees,WindSpeedMPH,WindSpeedGustMPH,Humidity,HourlyPrecipIn,Conditions,Clouds,dailyrainin,SoftwareType,DateUTC
2013-03-13 07:02:00,38.0,38.0,29.73,West,281,4.0,-999.0,100,0.26,,,-99.99,,2013-03-13 11:02:00,
2013-03-13 07:12:00,38.0,38.0,29.73,West,281,4.0,-999.0,100,0.26,,,-99.99,,2013-03-13 11:12:00,
2013-03-13 08:32:00,40.0,40.0,29.73,West,271,3.0,-999.0,99,0.00,,,-99.99,,2013-03-13 12:32:00,
2013-03-13 08:42:00,40.0,40.0,29.73,West,271,3.0,-999.0,99,0.00,,,-99.99,,2013-03-13 12:42:00,
2013-03-13 08:52:00,40.0,40.0,29.73,West,277,3.0,-999.0,99,0.00,,,-99.99,,2013-03-13 12:52:00,
2013-03-13 09:02:00,41.0,40.0,29.72,West,267,4.0,-999.0,96,0.00,,,-99.99,,2013-03-13 13:02:00,
2013-03-13 09:12:00,41.0,40.0,29.72,West,267,4.0,-999.0,96,0.00,,,-99.99,,2013-03-13 13:12:00,
2013-03-13 09:22:00,42.0,40.0,29.72,WSW,248,6.0,-999.0,92,0.00,,,-99.99,,2013-03-13 13:22:00,
2013-03-13 09:33:00,43.0,40.0,29.72,WNW,290,5.0,-999.0,90,0.01,,,-99.99,,2013-03-13 13:33:00,
2013-03-13 09:43:00,43.0,40.0,29.72,WNW,290,5.0,-999.0,90,0.01,,,-99.99,,2013-03-13 13:43:00,
2013-03-13 09:53:00,44.0,41.0,29.72,West,267,3.0,-999.0,89,0.01,,,-99.99,,2013-03-13 13:53:00,
2013-03-13 10:02:00,45.0,41.0,29.72,SW,233,1.0,-999.0,86,0.01,,,-99.99,,2013-03-13 14:02:00,
2013-03-13 10:12:00,45.0,41.0,29.72,SW,233,1.0,-999.0,86,0.01,,,-99.99,,2013-03-13 14:12:00,
2013-03-13 10:22:00,45.0,40.0,29.71,West,274,5.0,-999.0,82,0.01,,,-99.99,,2013-03-13 14:22:00,
2013-03-13 10:33:00,46.0,41.0,29.72,NW,308,4.0,-999.0,82,0.01,,,-99.99,,2013-03-13 14:33:00,
2013-03-13 10:42:00,46.0,41.0,29.72,NW,308,4.0,-999.0,82,0.01,,,-99.99,,2013-03-13 14:42:00,
2013-03-13 10:52:00,47.0,41.0,29.72,NW,305,2.0,-999.0,79,0.01,,,-99.99,,2013-03-13 14:52:00,
2013-03-13 11:03:00,48.0,41.0,29.72,NNE,21,7.0,-999.0,76,0.01,,,-99.99,,2013-03-13 15:03:00,
2013-03-13 11:12:00,48.0,41.0,29.72,NNE,21,7.0,-999.0,76,0.01,,,-99.99,,2013-03-13 15:12:00,
2013-03-13 11:22:00,49.0,42.0,29.71,WSW,255,3.0,-999.0,77,0.01,,,-99.99,,2013-03-13 15:22:00,
2013-03-13 11:32:00,49.0,41.0,29.70,NW,321,2.0,-999.0,74,0.01,,,-99.99,,2013-03-13 15:32:00,
2013-03-13 11:42:00,49.0,41.0,29.70,NW,321,2.0,-999.0,74,0.01,,,-99.99,,2013-03-13 15:42:00,
2013-03-13 11:53:00,50.0,41.0,29.70,West,270,6.0,-999.0,72,0.01,,,-99.99,,2013-03-13 15:53:00,
2013-03-13 12:03:00,51.0,42.0,29.70,WSW,245,3.0,-999.0,72,0.01,,,-99.99,,2013-03-13 16:03:00,
2013-03-13 12:12:00,51.0,42.0,29.70,WSW,245,3.0,-999.0,72,0.01,,,-99.99,,2013-03-13 16:12:00,
2013-03-13 12:22:00,51.0,42.0,29.70,West,267,6.0,-999.0,71,0.01,,,-99.99,,2013-03-13 16:22:00,
2013-03-13 12:32:00,52.0,41.0,29.70,WNW,288,7.0,-999.0,67,0.01,,,-99.99,,2013-03-13 16:32:00,
2013-03-13 12:42:00,52.0,41.0,29.70,WNW,288,7.0,-999.0,67,0.01,,,-99.99,,2013-03-13 16:42:00,
2013-03-13 12:52:00,52.0,40.0,29.70,WNW,300,5.0,-999.0,63,0.01,,,-99.99,,2013-03-13 16:52:00,
2013-03-13 13:02:00,52.0,39.0,29.70,NW,322,6.0,-999.0,60,0.01,,,-99.99,,2013-03-13 17:02:00,
2013-03-13 13:12:00,52.0,39.0,29.70,NW,322,6.0,-999.0,60,0.01,,,-99.99,,2013-03-13 17:12:00,
2013-03-13 13:22:00,52.0,40.0,29.70,West,270,6.0,-999.0,64,0.01,,,-99.99,,2013-03-13 17:22:00,
2013-03-13 13:32:00,52.0,40.0,29.69,West,267,6.0,-999.0,63,0.01,,,-99.99,,2013-03-13 17:32:00,
2013-03-13 13:42:00,52.0,40.0,29.69,West,267,6.0,-999.0,63,0.01,,,-99.99,,2013-03-13 17:42:00,
2013-03-13 13:53:00,52.0,39.0,29.69,West,259,6.0,-999.0,62,0.01,,,-99.99,,2013-03-13 17:53:00,
2013-03-13 14:02:00,52.0,39.0,29.69,West,281,7.0,-999.0,60,0.00,,,-99.99,,2013-03-13 18:02:00,
2013-03-13 14:12:00,52.0,39.0,29.69,West,281,7.0,-999.0,60,0.00,,,-99.99,,2013-03-13 18:12:00,
2013-03-13 14:22:00,52.0,39.0,29.68,West,267,12.0,-999.0,61,0.00,,,-99.99,,2013-03-13 18:22:00,
2013-03-13 14:33:00,52.0,38.0,29.68,WSW,256,12.0,-999.0,58,0.00,,,-99.99,,2013-03-13 18:33:00,
2013-03-13 14:42:00,52.0,38.0,29.68,WSW,256,12.0,-999.0,58,0.00,,,-99.99,,2013-03-13 18:42:00,
2013-03-13 14:52:00,52.0,39.0,29.68,West,270,3.0,-999.0,60,0.00,,,-99.99,,2013-03-13 18:52:00,
2013-03-13 15:02:00,52.0,38.0,29.68,WNW,285,6.0,-999.0,58,0.00,,,-99.99,,2013-03-13 19:02:00,
2013-03-13 15:12:00,52.0,38.0,29.68,WNW,285,6.0,-999.0,58,0.00,,,-99.99,,2013-03-13 19:12:00,
2013-03-13 15:22:00,52.0,38.0,29.67,West,259,5.0,-999.0,58,0.00,,,-99.99,,2013-03-13 19:22:00,
2013-03-13 15:32:00,52.0,36.0,29.67,WNW,285,9.0,-999.0,55,0.00,,,-99.99,,2013-03-13 19:32:00,
2013-03-13 15:43:00,52.0,36.0,29.67,WNW,285,9.0,-999.0,55,0.00,,,-99.99,,2013-03-13 19:43:00,
2013-03-13 15:53:00,52.0,37.0,29.67,SW,224,3.0,-999.0,57,0.00,,,-99.99,,2013-03-13 19:53:00,
2013-03-13 16:02:00,53.0,38.0,29.67,WSW,245,2.0,-999.0,56,0.00,,,-99.99,,2013-03-13 20:02:00,
2013-03-13 16:12:00,53.0,38.0,29.67,WSW,245,2.0,-999.0,56,0.00,,,-99.99,,2013-03-13 20:12:00,
2013-03-13 16:22:00,53.0,36.0,29.67,NW,315,7.0,-999.0,52,0.00,,,-99.99,,2013-03-13 20:22:00,
2013-03-13 16:32:00,53.0,35.0,29.67,North,0,6.0,-999.0,50,0.00,,,-99.99,,2013-03-13 20:32:00,
2013-03-13 16:42:00,53.0,35.0,29.67,North,0,6.0,-999.0,50,0.00,,,-99.99,,2013-03-13 20:42:00,
2013-03-13 16:52:00,53.0,36.0,29.67,WNW,283,5.0,-999.0,52,0.00,,,-99.99,,2013-03-13 20:52:00,
2013-03-13 17:02:00,53.0,35.0,29.67,West,264,3.0,-999.0,50,0.00,,,-99.99,,2013-03-13 21:02:00,
2013-03-13 17:12:00,53.0,35.0,29.67,West,264,3.0,-999.0,50,0.00,,,-99.99,,2013-03-13 21:12:00,
2013-03-13 17:22:00,52.0,33.0,29.68,West,267,9.0,-999.0,48,0.00,,,-99.99,,2013-03-13 21:22:00,
2013-03-13 17:33:00,52.0,33.0,29.68,West,263,7.0,-999.0,49,0.00,,,-99.99,,2013-03-13 21:33:00,
2013-03-13 17:42:00,52.0,33.0,29.68,West,263,7.0,-999.0,49,0.00,,,-99.99,,2013-03-13 21:42:00,
2013-03-13 17:52:00,51.0,32.0,29.68,NNE,20,5.0,-999.0,48,0.00,,,-99.99,,2013-03-13 21:52:00,
2013-03-13 18:02:00,50.0,32.0,29.69,NNW,332,3.0,-999.0,49,0.00,,,-99.99,,2013-03-13 22:02:00,
2013-03-13 18:12:00,50.0,32.0,29.69,NNW,332,3.0,-999.0,49,0.00,,,-99.99,,2013-03-13 22:12:00,
2013-03-13 18:22:00,49.0,31.0,29.69,East,94,1.0,-999.0,49,0.00,,,-99.99,,2013-03-13 22:22:00,
2013-03-13 18:32:00,48.0,30.0,29.69,NW,326,2.0,-999.0,50,0.00,,,-99.99,,2013-03-13 22:32:00,
2013-03-13 18:42:00,48.0,30.0,29.69,NW,326,2.0,-999.0,50,0.00,,,-99.99,,2013-03-13 22:42:00,
2013-03-13 18:52:00,47.0,29.0,29.70,NW,323,6.0,-999.0,50,0.00,,,-99.99,,2013-03-13 22:52:00,
2013-03-13 19:02:00,47.0,29.0,29.71,NW,316,3.0,-999.0,49,0.00,,,-99.99,,2013-03-13 23:02:00,
2013-03-13 19:12:00,47.0,29.0,29.71,NW,316,3.0,-999.0,49,0.00,,,-99.99,,2013-03-13 23:12:00,
2013-03-13 19:22:00,46.0,28.0,29.71,WSW,250,2.0,-999.0,50,0.00,,,-99.99,,2013-03-13 23:22:00,
2013-03-13 19:32:00,45.0,28.0,29.72,North,1,3.0,-999.0,52,0.00,,,-99.99,,2013-03-13 23:32:00,
2013-03-13 19:42:00,45.0,28.0,29.72,North,1,3.0,-999.0,52,0.00,,,-99.99,,2013-03-13 23:42:00,
2013-03-13 19:52:00,44.0,28.0,29.72,North,1,1.0,-999.0,53,0.00,,,-99.99,,2013-03-13 23:52:00,
2013-03-13 20:02:00,44.0,29.0,29.73,West,267,1.0,-999.0,55,0.00,,,-99.99,,2013-03-14 00:02:00,
2013-03-13 20:13:00,43.0,28.0,29.73,SW,224,0.0,-999.0,55,0.00,,,-99.99,,2013-03-14 00:13:00,
2013-03-13 20:22:00,43.0,28.0,29.73,SW,224,0.0,-999.0,55,0.00,,,-99.99,,2013-03-14 00:22:00,
2013-03-13 20:32:00,43.0,28.0,29.74,West,267,2.0,-999.0,56,0.00,,,-99.99,,2013-03-14 00:32:00,
2013-03-13 20:42:00,43.0,28.0,29.74,West,267,2.0,-999.0,56,0.00,,,-99.99,,2013-03-14 00:42:00,
2013-03-13 20:52:00,42.0,28.0,29.74,West,267,4.0,-999.0,57,0.00,,,-99.99,,2013-03-14 00:52:00,
2013-03-13 21:02:00,41.0,27.0,29.75,NW,309,2.0,-999.0,57,0.00,,,-99.99,,2013-03-14 01:02:00,
2013-03-13 21:12:00,41.0,27.0,29.75,NW,309,2.0,-999.0,57,0.00,,,-99.99,,2013-03-14 01:12:00,
2013-03-13 21:22:00,40.0,26.0,29.76,West,267,2.0,-999.0,58,0.00,,,-99.99,,2013-03-14 01:22:00,
2013-03-13 21:32:00,40.0,26.0,29.75,West,267,1.0,-999.0,57,0.00,,,-99.99,,2013-03-14 01:32:00,
2013-03-13 21:42:00,40.0,26.0,29.75,West,267,1.0,-999.0,57,0.00,,,-99.99,,2013-03-14 01:42:00,
2013-03-13 21:53:00,39.0,25.0,29.76,NW,312,0.0,-999.0,58,0.00,,,-99.99,,2013-03-14 01:53:00,
2013-03-13 22:02:00,39.0,25.0,29.76,West,271,2.0,-999.0,58,0.00,,,-99.99,,2013-03-14 02:02:00,
2013-03-13 22:12:00,39.0,25.0,29.76,West,271,2.0,-999.0,58,0.00,,,-99.99,,2013-03-14 02:12:00,
2013-03-13 22:22:00,38.0,25.0,29.76,West,267,3.0,-999.0,60,0.00,,,-99.99,,2013-03-14 02:22:00,
2013-03-13 22:32:00,37.0,24.0,29.76,West,267,4.0,-999.0,60,0.00,,,-99.99,,2013-03-14 02:32:00,
2013-03-13 22:42:00,37.0,24.0,29.76,West,267,4.0,-999.0,60,0.00,,,-99.99,,2013-03-14 02:42:00,
2013-03-13 22:51:00,37.0,24.0,29.76,West,267,4.0,-999.0,60,0.00,,,-99.99,,2013-03-14 02:51:00,
2013-03-13 23:02:00,36.0,24.0,29.75,West,267,3.0,-999.0,62,0.00,,,-99.99,,2013-03-14 03:02:00,
2013-03-13 23:12:00,36.0,24.0,29.75,West,267,3.0,-999.0,62,0.00,,,-99.99,,2013-03-14 03:12:00,
2013-03-13 23:23:00,36.0,24.0,29.75,West,277,3.0,-999.0,62,0.00,,,-99.99,,2013-03-14 03:23:00,
2013-03-13 23:32:00,36.0,25.0,29.75,West,267,3.0,-999.0,63,0.00,,,-99.99,,2013-03-14 03:32:00,
2013-03-13 23:42:00,36.0,25.0,29.75,West,267,3.0,-999.0,63,0.00,,,-99.99,,2013-03-14 03:42:00,
2013-03-13 23:52:00,35.0,24.0,29.75,West,267,3.0,-999.0,64,0.00,,,-99.99,,2013-03-14 03:52:00,